Time,TemperatureF,DewpointF,PressureIn,WindDirection,WindDirectionDegrees,WindSpeedMPH,WindSpeedGustMPH,Humidity,HourlyPrecipIn,Conditions,Clouds,dailyrainin,SoftwareType,DateUTC
2013-02-09 00:00:00,50.6,22.5,29.83,SSW,202,16.0,17.0,33,0.00,CLR,,0.00,WeatherDisplay:10.37,2013-02-09 05:00:00,
2013-02-09 00:05:00,50.5,23.2,29.83,SSW,209,10.0,14.0,34,0.00,CLR,,0.00,WeatherDisplay:10.37,2013-02-09 05:05:00,
2013-02-09 00:10:00,50.4,23.7,29.83,SSW,213,6.0,13.0,35,0.00,CLR,,0.00,WeatherDisplay:10.37,2013-02-09 05:10:00,
2013-02-09 00:15:00,50.2,23.6,29.83,SW,229,14.0,15.0,35,0.00,CLR,,0.00,WeatherDisplay:10.37,2013-02-09 05:15:00,
2013-02-09 00:20:00,50.2,24.2,29.83,SSW,204,15.0,18.0,36,0.00,CLR,,0.00,WeatherDisplay:10.37,2013-02-09 05:20:00,
2013-02-09 00:25:00,50.2,24.2,29.83,SSW,208,5.0,13.0,36,0.00,CLR,,0.00,WeatherDisplay:10.37,2013-02-09 05:25:00,
2013-02-09 00:30:00,49.8,23.9,29.83,WSW,243,16.0,20.0,36,0.00,CLR,,0.00,WeatherDisplay:10.37,2013-02-09 05:30:00,
2013-02-09 00:35:00,49.8,23.9,29.83,SW,217,12.0,24.0,36,0.00,CLR,,0.00,WeatherDisplay:10.37,2013-02-09 05:35:00,
2013-02-09 00:40:00,49.8,23.9,29.83,SSW,209,17.0,17.0,36,0.00,CLR,,0.00,WeatherDisplay:10.37,2013-02-09 05:40:00,
2013-02-09 00:45:00,49.6,24.4,29.83,SW,234,12.0,17.0,37,0.00,CLR,,0.00,WeatherDisplay:10.37,2013-02-09 05:45:00,
2013-02-09 00:50:00,49.6,24.4,29.82,SW,226,13.0,14.0,37,0.00,CLR,,0.00,WeatherDisplay:10.37,2013-02-09 05:50:00,
2013-02-09 00:55:00,49.5,24.9,29.83,SW,217,12.0,14.0,38,0.00,CLR,,0.00,WeatherDisplay:10.37,2013-02-09 05:55:00,
2013-02-09 01:00:00,49.3,24.7,29.82,SW,218,20.0,20.0,38,0.00,CLR,,0.00,WeatherDisplay:10.37,2013-02-09 06:00:00,
2013-02-09 01:05:00,49.3,25.3,29.82,SW,232,10.0,16.0,39,0.00,CLR,,0.00,WeatherDisplay:10.37,2013-02-09 06:05:00,
2013-02-09 01:10:00,49.1,25.8,29.82,SW,225,8.0,20.0,40,0.00,CLR,,0.00,WeatherDisplay:10.37,2013-02-09 06:10:00,
2013-02-09 01:15:00,48.9,25.0,29.82,SSW,208,5.0,15.0,39,0.00,CLR,,0.00,WeatherDisplay:10.37,2013-02-09 06:15:00,
2013-02-09 01:20:00,48.9,25.6,29.82,SW,215,9.0,12.0,40,0.00,CLR,,0.00,WeatherDisplay:10.37,2013-02-09 06:20:00,
2013-02-09 01:25:00,48.8,25.5,29.82,SSW,208,13.0,13.0,40,0.00,CLR,,0.00,WeatherDisplay:10.37,2013-02-09 06:25:00,
2013-02-09 01:30:00,48.7,25.5,29.82,SW,221,7.0,13.0,40,0.00,CLR,,0.00,WeatherDisplay:10.37,2013-02-09 06:30:00,
2013-02-09 01:40:00,48.7,24.2,29.82,SW,216,8.0,8.0,38,0.00,CLR,,0.00,WeatherDisplay:10.37,2013-02-09 06:40:00,
2013-02-09 01:45:00,48.7,24.2,29.81,SW,228,9.0,15.0,38,0.00,CLR,,0.00,WeatherDisplay:10.37,2013-02-09 06:45:00,
2013-02-09 01:50:00,48.7,23.6,29.81,SW,218,14.0,17.0,37,0.00,CLR,,0.00,WeatherDisplay:10.37,2013-02-09 06:50:00,
2013-02-09 02:00:00,48.7,22.9,29.81,SW,224,12.0,16.0,36,0.00,CLR,,0.00,WeatherDisplay:10.37,2013-02-09 07:00:00,
2013-02-09 02:05:00,48.7,22.9,29.81,SW,229,12.0,14.0,36,0.00,CLR,,0.00,WeatherDisplay:10.37,2013-02-09 07:05:00,
2013-02-09 02:10:00,48.7,22.9,29.80,SSW,208,13.0,20.0,36,0.00,CLR,,0.00,WeatherDisplay:10.37,2013-02-09 07:10:00,
2013-02-09 02:15:00,48.6,22.8,29.80,SSE,161,10.0,20.0,36,0.00,CLR,,0.00,WeatherDisplay:10.37,2013-02-09 07:15:00,
2013-02-09 02:20:00,48.6,23.4,29.80,SSE,160,16.0,17.0,37,0.00,CLR,,0.00,WeatherDisplay:10.37,2013-02-09 07:20:00,
2013-02-09 02:25:00,48.4,23.3,29.80,South,188,14.0,15.0,37,0.00,CLR,,0.00,WeatherDisplay:10.37,2013-02-09 07:25:00,
2013-02-09 02:30:00,48.4,23.3,29.80,SSW,193,9.0,15.0,37,0.00,CLR,,0.00,WeatherDisplay:10.37,2013-02-09 07:30:00,
2013-02-09 02:35:00,48.2,23.7,29.81,SSW,204,12.0,19.0,38,0.00,CLR,,0.00,WeatherDisplay:10.37,2013-02-09 07:35:00,
2013-02-09 02:40:00,48.0,23.6,29.80,SW,221,17.0,19.0,38,0.00,CLR,,0.00,WeatherDisplay:10.37,2013-02-09 07:40:00,
2013-02-09 02:45:00,48.0,23.6,29.80,SW,224,6.0,19.0,38,0.00,CLR,,0.00,WeatherDisplay:10.37,2013-02-09 07:45:00,
2013-02-09 02:50:00,48.0,23.6,29.80,SW,217,15.0,16.0,38,0.00,CLR,,0.00,WeatherDisplay:10.37,2013-02-09 07:50:00,
2013-02-09 02:55:00,47.8,23.4,29.80,SW,214,13.0,15.0,38,0.00,CLR,,0.00,WeatherDisplay:10.37,2013-02-09 07:55:00,
2013-02-09 03:00:00,47.8,23.4,29.81,SSW,207,5.0,14.0,38,0.00,CLR,,0.00,WeatherDisplay:10.37,2013-02-09 08:00:00,
2013-02-09 03:05:00,47.5,23.1,29.80,SW,225,15.0,15.0,38,0.00,CLR,,0.00,WeatherDisplay:10.37,2013-02-09 08:05:00,
2013-02-09 03:10:00,47.5,23.1,29.80,SW,234,10.0,15.0,38,0.00,CLR,,0.00,WeatherDisplay:10.37,2013-02-09 08:10:00,
2013-02-09 03:15:00,47.3,22.3,29.80,SSW,202,16.0,20.0,37,0.00,CLR,,0.00,WeatherDisplay:10.37,2013-02-09 08:15:00,
2013-02-09 03:20:00,47.2,21.5,29.79,South,182,8.0,9.0,36,0.00,CLR,,0.00,WeatherDisplay:10.37,2013-02-09 08:20:00,
2013-02-09 03:25:00,47.1,21.5,29.80,SSW,196,14.0,14.0,36,0.00,CLR,,0.00,WeatherDisplay:10.37,2013-02-09 08:25:00,
2013-02-09 03:30:00,47.0,20.7,29.80,SW,217,9.0,14.0,35,0.00,CLR,,0.00,WeatherDisplay:10.37,2013-02-09 08:30:00,
2013-02-09 03:35:00,46.9,20.7,29.80,SSW,209,5.0,12.0,35,0.00,CLR,,0.00,WeatherDisplay:10.37,2013-02-09 08:35:00,
2013-02-09 03:40:00,46.8,20.5,29.80,South,184,8.0,10.0,35,0.00,CLR,,0.00,WeatherDisplay:10.37,2013-02-09 08:40:00,
2013-02-09 03:45:00,46.8,19.1,29.80,South,191,7.0,12.0,33,0.00,CLR,,0.00,WeatherDisplay:10.37,2013-02-09 08:45:00,
2013-02-09 03:50:00,46.6,19.0,29.80,SSW,201,8.0,18.0,33,0.00,CLR,,0.00,WeatherDisplay:10.37,2013-02-09 08:50:00,
2013-02-09 03:55:00,46.6,18.3,29.80,SSW,209,13.0,18.0,32,0.00,CLR,,0.00,WeatherDisplay:10.37,2013-02-09 08:55:00,
2013-02-09 04:00:00,46.5,18.2,29.80,SSW,211,16.0,16.0,32,0.00,CLR,,0.00,WeatherDisplay:10.37,2013-02-09 09:00:00,
2013-02-09 04:05:00,46.2,18.7,29.80,SW,215,10.0,11.0,33,0.00,CLR,,0.00,WeatherDisplay:10.37,2013-02-09 09:05:00,
2013-02-09 04:10:00,46.2,18.7,29.80,SSW,209,13.0,13.0,33,0.00,CLR,,0.00,WeatherDisplay:10.37,2013-02-09 09:10:00,
2013-02-09 04:15:00,46.0,18.5,29.80,SSW,198,7.0,13.0,33,0.00,CLR,,0.00,WeatherDisplay:10.37,2013-02-09 09:15:00,
2013-02-09 04:20:00,45.7,18.9,29.79,SSW,213,8.0,10.0,34,0.00,CLR,,0.00,WeatherDisplay:10.37,2013-02-09 09:20:00,
2013-02-09 04:25:00,45.7,19.6,29.79,SSW,213,6.0,10.0,35,0.00,CLR,,0.00,WeatherDisplay:10.37,2013-02-09 09:25:00,
2013-02-09 04:30:00,45.5,19.4,29.79,SSW,197,3.0,10.0,35,0.00,CLR,,0.00,WeatherDisplay:10.37,2013-02-09 09:30:00,
2013-02-09 04:35:00,45.3,19.2,29.79,SSW,206,5.0,6.0,35,0.00,CLR,,0.00,WeatherDisplay:10.37,2013-02-09 09:35:00,
2013-02-09 04:40:00,45.1,19.1,29.79,SSW,206,14.0,14.0,35,0.00,CLR,,0.00,WeatherDisplay:10.37,2013-02-09 09:40:00,
2013-02-09 04:45:00,45.0,19.6,29.79,SSW,206,8.0,14.0,36,0.00,CLR,,0.00,WeatherDisplay:10.37,2013-02-09 09:45:00,
2013-02-09 04:50:00,45.0,19.6,29.79,SW,220,7.0,9.0,36,0.00,CLR,,0.00,WeatherDisplay:10.37,2013-02-09 09:50:00,
2013-02-09 04:55:00,44.8,19.4,29.79,SW,218,20.0,20.0,36,0.00,CLR,,0.00,WeatherDisplay:10.37,2013-02-09 09:55:00,
2013-02-09 05:00:00,44.4,19.1,29.79,SW,214,12.0,20.0,36,0.00,CLR,,0.00,WeatherDisplay:10.37,2013-02-09 10:00:00,
2013-02-09 05:05:00,44.4,19.1,29.80,SW,227,6.0,19.0,36,0.00,CLR,,0.00,WeatherDisplay:10.37,2013-02-09 10:05:00,
2013-02-09 05:10:00,44.2,18.9,29.80,SW,221,8.0,13.0,36,0.00,CLR,,0.00,WeatherDisplay:10.37,2013-02-09 10:10:00,
2013-02-09 05:15:00,43.9,19.3,29.80,SSW,202,7.0,12.0,37,0.00,CLR,,0.00,WeatherDisplay:10.37,2013-02-09 10:15:00,
2013-02-09 05:20:00,43.7,19.1,29.80,SSW,199,3.0,8.0,37,0.00,CLR,,0.00,WeatherDisplay:10.37,2013-02-09 10:20:00,
2013-02-09 05:25:00,43.5,19.6,29.81,SW,230,7.0,11.0,38,0.00,CLR,,0.00,WeatherDisplay:10.37,2013-02-09 10:25:00,
2013-02-09 05:30:00,43.2,19.9,29.80,SW,233,8.0,10.0,39,0.00,CLR,,0.00,WeatherDisplay:10.37,2013-02-09 10:30:00,
2013-02-09 05:35:00,43.0,20.9,29.81,SW,224,9.0,12.0,41,0.00,CLR,,0.00,WeatherDisplay:10.37,2013-02-09 10:35:00,
2013-02-09 05:40:00,42.6,22.2,29.81,SW,226,12.0,12.0,44,0.00,CLR,,0.00,WeatherDisplay:10.37,2013-02-09 10:40:00,
2013-02-09 05:45:00,42.4,23.1,29.81,SW,230,13.0,13.0,46,0.00,CLR,,0.00,WeatherDisplay:10.37,2013-02-09 10:45:00,
2013-02-09 05:50:00,42.1,23.8,29.81,SW,232,9.0,13.0,48,0.00,CLR,,0.00,WeatherDisplay:10.37,2013-02-09 10:50:00,
2013-02-09 05:55:00,42.1,24.3,29.81,WSW,237,12.0,13.0,49,0.00,CLR,,0.00,WeatherDisplay:10.37,2013-02-09 10:55:00,
2013-02-09 06:00:00,41.8,24.0,29.81,SW,236,12.0,15.0,49,0.00,CLR,,0.00,WeatherDisplay:10.37,2013-02-09 11:00:00,
2013-02-09 06:05:00,41.7,23.9,29.80,SW,231,15.0,16.0,49,0.00,CLR,,0.00,WeatherDisplay:10.37,2013-02-09 11:05:00,
2013-02-09 06:10:00,41.5,23.8,29.80,SW,218,5.0,16.0,49,0.00,CLR,,0.00,WeatherDisplay:10.37,2013-02-09 11:10:00,
2013-02-09 06:20:00,41.5,23.8,29.80,WSW,257,3.0,10.0,49,0.00,CLR,,0.00,WeatherDisplay:10.37,2013-02-09 11:20:00,
2013-02-09 06:25:00,41.5,24.3,29.80,SSW,212,10.0,16.0,50,0.00,CLR,,0.00,WeatherDisplay:10.37,2013-02-09 11:25:00,
2013-02-09 06:30:00,41.4,24.1,29.80,SSW,211,12.0,16.0,50,0.00,CLR,,0.00,WeatherDisplay:10.37,2013-02-09 11:30:00,
2013-02-09 06:35:00,41.4,25.0,29.79,SW,217,12.0,17.0,52,0.00,CLR,,0.00,WeatherDisplay:10.37,2013-02-09 11:35:00,
2013-02-09 06:40:00,41.2,24.9,29.80,SW,222,10.0,10.0,52,0.00,CLR,,0.00,WeatherDisplay:10.37,2013-02-09 11:40:00,
2013-02-09 06:45:00,41.2,24.9,29.80,SW,216,7.0,8.0,52,0.00,CLR,,0.00,WeatherDisplay:10.37,2013-02-09 11:45:00,
2013-02-09 06:50:00,41.2,25.3,29.80,SW,215,15.0,16.0,53,0.00,CLR,,0.00,WeatherDisplay:10.37,2013-02-09 11:50:00,
2013-02-09 06:55:00,41.2,25.3,29.80,WSW,239,7.0,16.0,53,0.00,CLR,,0.00,WeatherDisplay:10.37,2013-02-09 11:55:00,
2013-02-09 07:00:00,41.2,25.8,29.80,SW,229,12.0,26.0,54,0.00,CLR,,0.00,WeatherDisplay:10.37,2013-02-09 12:00:00,
2013-02-09 07:05:00,41.2,26.2,29.80,SW,221,10.0,13.0,55,0.00,CLR,,0.00,WeatherDisplay:10.37,2013-02-09 12:05:00,
2013-02-09 07:10:00,41.2,26.2,29.80,SW,214,9.0,12.0,55,0.00,CLR,,0.00,WeatherDisplay:10.37,2013-02-09 12:10:00,
2013-02-09 07:15:00,40.9,26.0,29.80,SSW,197,12.0,15.0,55,0.00,CLR,,0.00,WeatherDisplay:10.37,2013-02-09 12:15:00,
2013-02-09 07:20:00,40.8,26.3,29.80,SSW,199,14.0,15.0,56,0.00,CLR,,0.00,WeatherDisplay:10.37,2013-02-09 12:20:00,
2013-02-09 07:25:00,40.8,26.3,29.80,SSW,204,12.0,12.0,56,0.00,CLR,,0.00,WeatherDisplay:10.37,2013-02-09 12:25:00,
2013-02-09 07:30:00,40.8,25.9,29.80,SW,216,7.0,12.0,55,0.00,CLR,,0.00,WeatherDisplay:10.37,2013-02-09 12:30:00,
2013-02-09 07:35:00,40.8,25.0,29.80,SSW,198,6.0,27.0,53,0.00,CLR,,0.00,WeatherDisplay:10.37,2013-02-09 12:35:00,
2013-02-09 07:40:00,40.8,25.4,29.80,South,173,7.0,7.0,54,0.00,CLR,,0.00,WeatherDisplay:10.37,2013-02-09 12:40:00,
2013-02-09 07:45:00,40.8,25.4,29.80,SSW,193,8.0,8.0,54,0.00,CLR,,0.00,WeatherDisplay:10.37,2013-02-09 12:45:00,
2013-02-09 07:50:00,40.8,25.9,29.80,SW,222,8.0,8.0,55,0.00,CLR,,0.00,WeatherDisplay:10.37,2013-02-09 12:50:00,
2013-02-09 07:55:00,40.8,26.3,29.80,SW,233,10.0,13.0,56,0.00,CLR,,0.00,WeatherDisplay:10.37,2013-02-09 12:55:00,
2013-02-09 08:00:00,40.6,26.2,29.80,SW,216,18.0,20.0,56,0.00,CLR,,0.00,WeatherDisplay:10.37,2013-02-09 13:00:00,
2013-02-09 08:05:00,40.5,25.5,29.80,SW,225,8.0,20.0,55,0.00,CLR,,0.00,WeatherDisplay:10.37,2013-02-09 13:05:00,
2013-02-09 08:10:00,40.3,24.9,29.80,SW,228,9.0,11.0,54,0.00,CLR,,0.00,WeatherDisplay:10.37,2013-02-09 13:10:00,
2013-02-09 08:15:00,40.1,24.3,29.80,SW,216,7.0,13.0,53,0.00,CLR,,0.00,WeatherDisplay:10.37,2013-02-09 13:15:00,
2013-02-09 08:20:00,39.9,24.6,29.80,SW,231,9.0,10.0,54,0.00,CLR,,0.00,WeatherDisplay:10.37,2013-02-09 13:20:00,
2013-02-09 08:25:00,39.9,24.6,29.81,WSW,247,9.0,10.0,54,0.00,CLR,,0.00,WeatherDisplay:10.37,2013-02-09 13:25:00,
2013-02-09 08:30:00,39.7,24.4,29.82,SW,231,1.0,9.0,54,0.00,CLR,,0.00,WeatherDisplay:10.37,2013-02-09 13:30:00,
2013-02-09 08:35:00,39.7,24.9,29.82,South,189,3.0,14.0,55,0.00,CLR,,0.00,WeatherDisplay:10.37,2013-02-09 13:35:00,
2013-02-09 08:40:00,39.6,24.7,29.82,SSW,201,3.0,7.0,55,0.00,CLR,,0.00,WeatherDisplay:10.37,2013-02-09 13:40:00,
2013-02-09 08:45:00,39.6,24.7,29.81,SW,229,5.0,6.0,55,0.00,CLR,,0.00,WeatherDisplay:10.37,2013-02-09 13:45:00,
2013-02-09 08:50:00,39.4,24.5,29.81,SW,216,18.0,20.0,55,0.00,CLR,,0.00,WeatherDisplay:10.37,2013-02-09 13:50:00,
2013-02-09 08:55:00,39.4,24.5,29.82,SSW,198,10.0,14.0,55,0.00,CLR,,0.00,WeatherDisplay:10.37,2013-02-09 13:55:00,
2013-02-09 09:00:00,39.0,24.2,29.82,SSW,202,6.0,8.0,55,0.00,CLR,,0.00,WeatherDisplay:10.37,2013-02-09 14:00:00,
2013-02-09 09:05:00,39.0,24.2,29.82,SW,231,3.0,6.0,55,0.00,CLR,,0.00,WeatherDisplay:10.37,2013-02-09 14:05:00,
2013-02-09 09:10:00,39.0,24.2,29.82,SSW,209,7.0,7.0,55,0.00,CLR,,0.00,WeatherDisplay:10.37,2013-02-09 14:10:00,
2013-02-09 09:15:00,39.0,24.2,29.82,SSW,203,7.0,7.0,55,0.00,CLR,,0.00,WeatherDisplay:10.37,2013-02-09 14:15:00,
2013-02-09 09:20:00,39.0,24.6,29.82,SSW,209,6.0,8.0,56,0.00,CLR,,0.00,WeatherDisplay:10.37,2013-02-09 14:20:00,
2013-02-09 09:25:00,38.7,23.9,29.83,SW,222,8.0,9.0,55,0.00,CLR,,0.00,WeatherDisplay:10.37,2013-02-09 14:25:00,
2013-02-09 09:30:00,38.7,23.9,29.83,SW,225,3.0,8.0,55,0.00,CLR,,0.00,WeatherDisplay:10.37,2013-02-09 14:30:00,
2013-02-09 09:35:00,38.5,23.7,29.83,SW,214,9.0,10.0,55,0.00,CLR,,0.00,WeatherDisplay:10.37,2013-02-09 14:35:00,
2013-02-09 09:40:00,38.5,23.7,29.83,SW,216,7.0,7.0,55,0.00,CLR,,0.00,WeatherDisplay:10.37,2013-02-09 14:40:00,
2013-02-09 09:45:00,38.5,23.7,29.83,SW,225,8.0,11.0,55,0.00,CLR,,0.00,WeatherDisplay:10.37,2013-02-09 14:45:00,
2013-02-09 09:50:00,38.5,23.7,29.83,SW,220,0.0,8.0,55,0.00,CLR,,0.00,WeatherDisplay:10.37,2013-02-09 14:50:00,
2013-02-09 09:55:00,38.5,23.7,29.83,SSW,202,8.0,9.0,55,0.00,CLR,,0.00,WeatherDisplay:10.37,2013-02-09 14:55:00,
2013-02-09 10:00:00,38.5,23.7,29.83,SSW,209,8.0,9.0,55,0.00,CLR,,0.00,WeatherDisplay:10.37,2013-02-09 15:00:00,
2013-02-09 10:05:00,38.5,23.7,29.84,SW,228,12.0,12.0,55,0.00,CLR,,0.00,WeatherDisplay:10.37,2013-02-09 15:05:00,
2013-02-09 10:10:00,38.8,24.0,29.84,SSW,212,10.0,11.0,55,0.00,CLR,,0.00,WeatherDisplay:10.37,2013-02-09 15:10:00,
2013-02-09 10:15:00,38.8,24.0,29.84,SSW,200,10.0,11.0,55,0.00,CLR,,0.00,WeatherDisplay:10.37,2013-02-09 15:15:00,
2013-02-09 10:20:00,39.2,24.4,29.84,SSW,204,15.0,15.0,55,0.00,CLR,,0.00,WeatherDisplay:10.37,2013-02-09 15:20:00,
2013-02-09 10:25:00,39.6,24.7,29.84,SSW,207,8.0,10.0,55,0.00,CLR,,0.00,WeatherDisplay:10.37,2013-02-09 15:25:00,
2013-02-09 10:30:00,39.7,24.9,29.84,SW,234,12.0,14.0,55,0.00,CLR,,0.00,WeatherDisplay:10.37,2013-02-09 15:30:00,
2013-02-09 10:35:00,40.2,25.7,29.85,SW,235,15.0,15.0,56,0.00,CLR,,0.00,WeatherDisplay:10.37,2013-02-09 15:35:00,
2013-02-09 10:40:00,40.8,26.3,29.85,SW,235,8.0,15.0,56,0.00,CLR,,0.00,WeatherDisplay:10.37,2013-02-09 15:40:00,
2013-02-09 10:45:00,40.8,26.3,29.85,SW,225,8.0,9.0,56,0.00,CLR,,0.00,WeatherDisplay:10.37,2013-02-09 15:45:00,
2013-02-09 10:50:00,40.8,25.9,29.86,SSW,207,9.0,9.0,55,0.00,CLR,,0.00,WeatherDisplay:10.37,2013-02-09 15:50:00,
2013-02-09 10:55:00,41.2,26.2,29.87,SSW,200,8.0,12.0,55,0.00,CLR,,0.00,WeatherDisplay:10.37,2013-02-09 15:55:00,
2013-02-09 11:00:00,41.0,26.9,29.87,SW,218,6.0,12.0,57,0.00,CLR,,0.00,WeatherDisplay:10.37,2013-02-09 16:00:00,
2013-02-09 11:05:00,40.7,27.1,29.88,SW,220,8.0,11.0,58,0.00,CLR,,0.00,WeatherDisplay:10.37,2013-02-09 16:05:00,
2013-02-09 11:10:00,40.6,27.4,29.88,SSW,213,6.0,7.0,59,0.00,CLR,,0.00,WeatherDisplay:10.37,2013-02-09 16:10:00,
2013-02-09 11:15:00,40.5,27.2,29.88,SW,216,0.0,7.0,59,0.00,CLR,,0.00,WeatherDisplay:10.37,2013-02-09 16:15:00,
2013-02-09 11:20:00,40.5,27.7,29.88,SSW,207,7.0,7.0,60,0.00,CLR,,0.00,WeatherDisplay:10.37,2013-02-09 16:20:00,
2013-02-09 11:25:00,40.3,27.5,29.88,SSW,209,1.0,3.0,60,0.00,CLR,,0.00,WeatherDisplay:10.37,2013-02-09 16:25:00,
2013-02-09 11:30:00,40.6,27.8,29.89,SW,219,0.0,4.0,60,0.00,CLR,,0.00,WeatherDisplay:10.37,2013-02-09 16:30:00,
2013-02-09 11:35:00,40.8,28.4,29.89,WNW,283,7.0,7.0,61,0.00,CLR,,0.00,WeatherDisplay:10.37,2013-02-09 16:35:00,
2013-02-09 11:40:00,40.8,28.8,29.90,WNW,296,7.0,7.0,62,0.00,CLR,,0.00,WeatherDisplay:10.37,2013-02-09 16:40:00,
2013-02-09 11:45:00,40.6,28.2,29.90,WNW,285,8.0,8.0,61,0.00,CLR,,0.00,WeatherDisplay:10.37,2013-02-09 16:45:00,
2013-02-09 11:50:00,40.8,28.4,29.90,West,280,5.0,23.0,61,0.00,CLR,,0.00,WeatherDisplay:10.37,2013-02-09 16:50:00,
2013-02-09 11:55:00,41.0,29.0,29.90,West,277,10.0,23.0,62,0.00,CLR,,0.00,WeatherDisplay:10.37,2013-02-09 16:55:00,
2013-02-09 12:00:00,41.2,28.7,29.90,West,278,9.0,10.0,61,0.00,CLR,,0.00,WeatherDisplay:10.37,2013-02-09 17:00:00,
2013-02-09 12:05:00,41.6,28.7,29.91,West,273,0.0,9.0,60,0.00,CLR,,0.00,WeatherDisplay:10.37,2013-02-09 17:05:00,
2013-02-09 12:10:00,42.1,28.7,29.91,West,273,7.0,7.0,59,0.00,CLR,,0.00,WeatherDisplay:10.37,2013-02-09 17:10:00,
2013-02-09 12:15:00,42.4,29.1,29.91,WNW,290,5.0,8.0,59,0.00,CLR,,0.00,WeatherDisplay:10.37,2013-02-09 17:15:00,
2013-02-09 12:20:00,42.6,28.4,29.91,WNW,287,9.0,9.0,57,0.00,CLR,,0.00,WeatherDisplay:10.37,2013-02-09 17:20:00,
2013-02-09 12:25:00,42.6,28.4,29.92,WNW,289,8.0,9.0,57,0.00,CLR,,0.00,WeatherDisplay:10.37,2013-02-09 17:25:00,
2013-02-09 12:30:00,42.6,28.0,29.92,WNW,293,7.0,7.0,56,0.00,CLR,,0.00,WeatherDisplay:10.37,2013-02-09 17:30:00,
2013-02-09 12:35:00,43.0,28.3,29.92,WNW,290,8.0,8.0,56,0.00,CLR,,0.00,WeatherDisplay:10.37,2013-02-09 17:35:00,
2013-02-09 12:40:00,43.0,27.5,29.92,West,262,10.0,12.0,54,0.00,CLR,,0.00,WeatherDisplay:10.37,2013-02-09 17:40:00,
2013-02-09 12:45:00,43.2,26.2,29.92,WSW,241,8.0,12.0,51,0.00,CLR,,0.00,WeatherDisplay:10.37,2013-02-09 17:45:00,
2013-02-09 12:50:00,43.2,25.8,29.92,SW,232,12.0,14.0,50,0.00,CLR,,0.00,WeatherDisplay:10.37,2013-02-09 17:50:00,
2013-02-09 12:55:00,44.0,26.5,29.92,WSW,237,6.0,6.0,50,0.00,CLR,,0.00,WeatherDisplay:10.37,2013-02-09 17:55:00,
2013-02-09 13:00:00,44.4,26.4,29.92,WSW,246,3.0,5.0,49,0.00,CLR,,0.00,WeatherDisplay:10.37,2013-02-09 18:00:00,
2013-02-09 13:05:00,45.0,26.4,29.93,West,277,0.0,5.0,48,0.00,CLR,,0.00,WeatherDisplay:10.37,2013-02-09 18:05:00,
2013-02-09 13:10:00,45.1,27.1,29.93,SW,234,10.0,12.0,49,0.00,CLR,,0.00,WeatherDisplay:10.37,2013-02-09 18:10:00,
2013-02-09 13:15:00,45.0,27.4,29.93,SW,225,10.0,13.0,50,0.00,CLR,,0.00,WeatherDisplay:10.37,2013-02-09 18:15:00,
2013-02-09 13:20:00,44.4,26.4,29.93,SW,224,0.0,13.0,49,0.00,CLR,,0.00,WeatherDisplay:10.37,2013-02-09 18:20:00,
2013-02-09 13:25:00,44.4,27.4,29.93,SSW,212,3.0,7.0,51,0.00,CLR,,0.00,WeatherDisplay:10.37,2013-02-09 18:25:00,
2013-02-09 13:30:00,44.4,26.9,29.92,SSW,196,0.0,0.0,50,0.00,CLR,,0.00,WeatherDisplay:10.37,2013-02-09 18:30:00,
2013-02-09 13:35:00,44.8,25.8,29.92,SW,234,7.0,13.0,47,0.00,CLR,,0.00,WeatherDisplay:10.37,2013-02-09 18:35:00,
2013-02-09 13:40:00,44.8,24.7,29.92,SW,215,2.0,13.0,45,0.00,CLR,,0.00,WeatherDisplay:10.37,2013-02-09 18:40:00,
2013-02-09 13:45:00,45.3,24.7,29.92,SW,218,3.0,12.0,44,0.00,CLR,,0.00,WeatherDisplay:10.37,2013-02-09 18:45:00,
2013-02-09 13:50:00,45.7,24.4,29.92,SW,228,9.0,12.0,43,0.00,CLR,,0.00,WeatherDisplay:10.37,2013-02-09 18:50:00,
2013-02-09 13:55:00,46.0,23.6,29.92,SW,231,8.0,9.0,41,0.00,CLR,,0.00,WeatherDisplay:10.37,2013-02-09 18:55:00,
2013-02-09 14:00:00,46.6,24.1,29.92,SW,232,3.0,9.0,41,0.00,CLR,,0.00,WeatherDisplay:10.37,2013-02-09 19:00:00,
2013-02-09 14:10:00,48.0,24.8,29.92,SW,233,6.0,9.0,40,0.00,CLR,,0.00,WeatherDisplay:10.37,2013-02-09 19:10:00,
2013-02-09 14:15:00,48.7,25.5,29.93,West,266,7.0,9.0,40,0.00,CLR,,0.00,WeatherDisplay:10.37,2013-02-09 19:15:00,
2013-02-09 14:20:00,49.1,24.6,29.92,WSW,256,13.0,13.0,38,0.00,CLR,,0.00,WeatherDisplay:10.37,2013-02-09 19:20:00,
2013-02-09 14:25:00,49.1,23.9,29.92,WSW,246,6.0,12.0,37,0.00,CLR,,0.00,WeatherDisplay:10.37,2013-02-09 19:25:00,
2013-02-09 14:30:00,49.3,24.1,29.92,WSW,238,7.0,17.0,37,0.00,CLR,,0.00,WeatherDisplay:10.37,2013-02-09 19:30:00,
2013-02-09 14:35:00,49.6,24.4,29.92,SW,223,5.0,15.0,37,0.00,CLR,,0.00,WeatherDisplay:10.37,2013-02-09 19:35:00,
2013-02-09 14:40:00,50.0,24.7,29.93,SW,228,5.0,6.0,37,0.00,CLR,,0.00,WeatherDisplay:10.37,2013-02-09 19:40:00,
2013-02-09 14:45:00,50.2,24.2,29.93,SW,229,15.0,16.0,36,0.00,CLR,,0.00,WeatherDisplay:10.37,2013-02-09 19:45:00,
2013-02-09 14:50:00,50.2,24.2,29.93,SW,220,10.0,14.0,36,0.00,CLR,,0.00,WeatherDisplay:10.37,2013-02-09 19:50:00,
2013-02-09 14:55:00,50.4,24.4,29.92,SW,227,7.0,9.0,36,0.00,CLR,,0.00,WeatherDisplay:10.37,2013-02-09 19:55:00,
2013-02-09 15:00:00,50.8,24.1,29.92,WSW,258,8.0,12.0,35,0.00,CLR,,0.00,WeatherDisplay:10.37,2013-02-09 20:00:00,
2013-02-09 15:05:00,51.2,23.8,29.92,SW,231,14.0,14.0,34,0.00,CLR,,0.00,WeatherDisplay:10.37,2013-02-09 20:05:00,
2013-02-09 15:10:00,51.4,23.3,29.92,SW,226,9.0,12.0,33,0.00,CLR,,0.00,WeatherDisplay:10.37,2013-02-09 20:10:00,
2013-02-09 15:15:00,51.3,23.1,29.91,WSW,242,13.0,13.0,33,0.00,CLR,,0.00,WeatherDisplay:10.37,2013-02-09 20:15:00,
2013-02-09 15:20:00,51.3,23.1,29.92,WSW,241,8.0,13.0,33,0.00,CLR,,0.00,WeatherDisplay:10.37,2013-02-09 20:20:00,
2013-02-09 15:25:00,51.8,23.6,29.91,SSW,212,8.0,13.0,33,0.00,CLR,,0.00,WeatherDisplay:10.37,2013-02-09 20:25:00,
2013-02-09 15:35:00,51.6,22.7,29.91,SW,228,8.0,18.0,32,0.00,CLR,,0.00,WeatherDisplay:10.37,2013-02-09 20:35:00,
2013-02-09 15:40:00,51.5,22.6,29.91,SW,228,7.0,14.0,32,0.00,CLR,,0.00,WeatherDisplay:10.37,2013-02-09 20:40:00,
2013-02-09 15:45:00,51.3,23.1,29.90,SW,225,2.0,3.0,33,0.00,CLR,,0.00,WeatherDisplay:10.37,2013-02-09 20:45:00,
2013-02-09 15:50:00,51.4,22.5,29.90,SSW,206,0.0,8.0,32,0.00,CLR,,0.00,WeatherDisplay:10.37,2013-02-09 20:50:00,
2013-02-09 15:55:00,51.4,23.3,29.91,SW,230,7.0,10.0,33,0.00,CLR,,0.00,WeatherDisplay:10.37,2013-02-09 20:55:00,
2013-02-09 16:00:00,51.6,23.4,29.91,SW,227,13.0,14.0,33,0.00,CLR,,0.00,WeatherDisplay:10.37,2013-02-09 21:00:00,
2013-02-09 16:05:00,52.3,24.0,29.91,WSW,239,0.0,14.0,33,0.00,CLR,,0.00,WeatherDisplay:10.37,2013-02-09 21:05:00,
2013-02-09 16:10:00,52.3,23.3,29.91,WSW,243,6.0,8.0,32,0.00,CLR,,0.00,WeatherDisplay:10.37,2013-02-09 21:10:00,
2013-02-09 16:15:00,52.7,23.6,29.91,WSW,241,6.0,6.0,32,0.00,CLR,,0.00,WeatherDisplay:10.37,2013-02-09 21:15:00,
2013-02-09 16:20:00,52.7,23.6,29.91,WSW,242,7.0,8.0,32,0.00,CLR,,0.00,WeatherDisplay:10.37,2013-02-09 21:20:00,
2013-02-09 16:25:00,52.7,22.9,29.91,WSW,243,10.0,12.0,31,0.00,CLR,,0.00,WeatherDisplay:10.37,2013-02-09 21:25:00,
2013-02-09 16:30:00,52.5,21.9,29.91,WSW,239,14.0,14.0,30,0.00,CLR,,0.00,WeatherDisplay:10.37,2013-02-09 21:30:00,
2013-02-09 16:35:00,52.1,22.4,29.92,SSW,213,5.0,14.0,31,0.00,CLR,,0.00,WeatherDisplay:10.37,2013-02-09 21:35:00,
2013-02-09 16:40:00,51.8,22.1,29.92,SW,227,9.0,9.0,31,0.00,CLR,,0.00,WeatherDisplay:10.37,2013-02-09 21:40:00,
2013-02-09 16:45:00,51.1,21.5,29.92,WSW,239,2.0,8.0,31,0.00,CLR,,0.00,WeatherDisplay:10.37,2013-02-09 21:45:00,
2013-02-09 16:50:00,50.6,21.1,29.92,WSW,240,7.0,7.0,31,0.00,CLR,,0.00,WeatherDisplay:10.37,2013-02-09 21:50:00,
2013-02-09 16:55:00,50.7,21.1,29.92,WSW,248,7.0,10.0,31,0.00,CLR,,0.00,WeatherDisplay:10.37,2013-02-09 21:55:00,
2013-02-09 17:00:00,50.9,21.3,29.92,SW,235,14.0,17.0,31,0.00,CLR,,0.00,WeatherDisplay:10.37,2013-02-09 22:00:00,
2013-02-09 17:05:00,51.4,21.7,29.92,WSW,240,3.0,17.0,31,0.00,CLR,,0.00,WeatherDisplay:10.37,2013-02-09 22:05:00,
2013-02-09 17:10:00,51.8,21.3,29.92,WSW,248,9.0,12.0,30,0.00,CLR,,0.00,WeatherDisplay:10.37,2013-02-09 22:10:00,
2013-02-09 17:15:00,52.5,21.9,29.92,WSW,248,14.0,14.0,30,0.00,CLR,,0.00,WeatherDisplay:10.37,2013-02-09 22:15:00,
2013-02-09 17:20:00,53.1,21.6,29.92,WSW,248,6.0,14.0,29,0.00,CLR,,0.00,WeatherDisplay:10.37,2013-02-09 22:20:00,
2013-02-09 17:25:00,53.8,22.2,29.92,WSW,248,0.0,7.0,29,0.00,CLR,,0.00,WeatherDisplay:10.37,2013-02-09 22:25:00,
2013-02-09 17:30:00,53.8,21.4,29.92,WSW,241,7.0,8.0,28,0.00,CLR,,0.00,WeatherDisplay:10.37,2013-02-09 22:30:00,
2013-02-09 17:35:00,53.3,21.8,29.92,WSW,251,6.0,8.0,29,0.00,CLR,,0.00,WeatherDisplay:10.37,2013-02-09 22:35:00,
2013-02-09 17:40:00,53.2,21.8,29.92,West,260,5.0,7.0,29,0.00,CLR,,0.00,WeatherDisplay:10.37,2013-02-09 22:40:00,
2013-02-09 17:45:00,53.4,22.7,29.92,WSW,249,7.0,7.0,30,0.00,CLR,,0.00,WeatherDisplay:10.37,2013-02-09 22:45:00,
2013-02-09 17:50:00,53.8,22.2,29.92,WSW,247,0.0,7.0,29,0.00,CLR,,0.00,WeatherDisplay:10.37,2013-02-09 22:50:00,
2013-02-09 17:55:00,53.8,22.2,29.92,WSW,245,3.0,3.0,29,0.00,CLR,,0.00,WeatherDisplay:10.37,2013-02-09 22:55:00,
2013-02-09 18:00:00,53.4,21.9,29.92,WSW,247,6.0,9.0,29,0.00,CLR,,0.00,WeatherDisplay:10.37,2013-02-09 23:00:00,
2013-02-09 18:05:00,53.2,21.8,29.92,WSW,248,5.0,7.0,29,0.00,CLR,,0.00,WeatherDisplay:10.37,2013-02-09 23:05:00,
2013-02-09 18:10:00,52.9,21.4,29.92,WSW,244,3.0,7.0,29,0.00,CLR,,0.00,WeatherDisplay:10.37,2013-02-09 23:10:00,
2013-02-09 18:15:00,52.5,21.1,29.92,WSW,242,0.0,5.0,29,0.00,CLR,,0.00,WeatherDisplay:10.37,2013-02-09 23:15:00,
2013-02-09 18:20:00,52.1,20.8,29.92,WSW,237,8.0,8.0,29,0.00,CLR,,0.00,WeatherDisplay:10.37,2013-02-09 23:20:00,
2013-02-09 18:25:00,51.4,21.0,29.92,SW,235,3.0,9.0,30,0.00,CLR,,0.00,WeatherDisplay:10.37,2013-02-09 23:25:00,
2013-02-09 18:30:00,51.3,20.8,29.92,SW,219,6.0,9.0,30,0.00,CLR,,0.00,WeatherDisplay:10.37,2013-02-09 23:30:00,
2013-02-09 18:35:00,50.7,20.4,29.92,SW,220,5.0,6.0,30,0.00,CLR,,0.00,WeatherDisplay:10.37,2013-02-09 23:35:00,
2013-02-09 18:40:00,50.5,20.2,29.92,WSW,241,3.0,6.0,30,0.00,CLR,,0.00,WeatherDisplay:10.37,2013-02-09 23:40:00,
2013-02-09 18:45:00,50.7,20.4,29.92,WSW,248,0.0,0.0,30,0.00,CLR,,0.00,WeatherDisplay:10.37,2013-02-09 23:45:00,
2013-02-09 18:50:00,50.5,20.2,29.92,WSW,244,0.0,0.0,30,0.00,CLR,,0.00,WeatherDisplay:10.37,2013-02-09 23:50:00,
2013-02-09 18:55:00,50.2,20.7,29.92,West,265,2.0,6.0,31,0.00,CLR,,0.00,WeatherDisplay:10.37,2013-02-09 23:55:00,
2013-02-09 19:00:00,49.8,21.1,29.92,West,259,1.0,6.0,32,0.00,CLR,,0.00,WeatherDisplay:10.37,2013-02-10 00:00:00,
2013-02-09 19:05:00,49.6,20.9,29.93,WSW,251,5.0,7.0,32,0.00,CLR,,0.00,WeatherDisplay:10.37,2013-02-10 00:05:00,
2013-02-09 19:10:00,49.6,20.9,29.93,WSW,244,5.0,7.0,32,0.00,CLR,,0.00,WeatherDisplay:10.37,2013-02-10 00:10:00,
2013-02-09 19:15:00,49.3,20.6,29.93,SW,227,6.0,7.0,32,0.00,CLR,,0.00,WeatherDisplay:10.37,2013-02-10 00:15:00,
2013-02-09 19:20:00,48.5,20.7,29.93,WSW,237,5.0,5.0,33,0.00,CLR,,0.00,WeatherDisplay:10.37,2013-02-10 00:20:00,
2013-02-09 19:25:00,48.0,20.2,29.93,WSW,258,3.0,4.0,33,0.00,CLR,,0.00,WeatherDisplay:10.37,2013-02-10 00:25:00,
2013-02-09 19:30:00,47.8,20.8,29.93,West,272,5.0,8.0,34,0.00,CLR,,0.00,WeatherDisplay:10.37,2013-02-10 00:30:00,
2013-02-09 19:35:00,47.4,20.4,29.93,West,271,0.0,8.0,34,0.00,CLR,,0.00,WeatherDisplay:10.37,2013-02-10 00:35:00,
2013-02-09 19:40:00,47.1,20.8,29.93,West,272,0.0,4.0,35,0.00,CLR,,0.00,WeatherDisplay:10.37,2013-02-10 00:40:00,
2013-02-09 19:45:00,46.8,20.5,29.93,West,273,5.0,5.0,35,0.00,CLR,,0.00,WeatherDisplay:10.37,2013-02-10 00:45:00,
2013-02-09 19:50:00,46.4,20.2,29.93,WSW,255,0.0,5.0,35,0.00,CLR,,0.00,WeatherDisplay:10.37,2013-02-10 00:50:00,
2013-02-09 19:55:00,46.0,20.5,29.94,WSW,249,5.0,6.0,36,0.00,CLR,,0.00,WeatherDisplay:10.37,2013-02-10 00:55:00,
2013-02-09 20:00:00,45.7,19.6,29.94,SW,231,5.0,7.0,35,0.00,CLR,,0.00,WeatherDisplay:10.37,2013-02-10 01:00:00,
2013-02-09 20:05:00,44.9,18.2,29.94,SW,226,8.0,10.0,34,0.00,CLR,,0.00,WeatherDisplay:10.37,2013-02-10 01:05:00,
2013-02-09 20:10:00,44.4,18.4,29.94,SW,226,0.0,10.0,35,0.00,CLR,,0.00,WeatherDisplay:10.37,2013-02-10 01:10:00,
2013-02-09 20:15:00,44.1,18.1,29.94,SW,226,0.0,4.0,35,0.00,CLR,,0.00,WeatherDisplay:10.37,2013-02-10 01:15:00,
2013-02-09 20:20:00,43.8,18.5,29.94,WSW,242,3.0,7.0,36,0.00,CLR,,0.00,WeatherDisplay:10.37,2013-02-10 01:20:00,
2013-02-09 20:25:00,43.5,18.3,29.94,WSW,248,3.0,7.0,36,0.00,CLR,,0.00,WeatherDisplay:10.37,2013-02-10 01:25:00,
2013-02-09 20:30:00,43.3,18.1,29.94,WSW,246,0.0,0.0,36,0.00,CLR,,0.00,WeatherDisplay:10.37,2013-02-10 01:30:00,
2013-02-09 20:35:00,43.0,18.5,29.94,WSW,241,0.0,0.0,37,0.00,CLR,,0.00,WeatherDisplay:10.37,2013-02-10 01:35:00,
2013-02-09 20:40:00,42.6,18.1,29.94,SW,233,1.0,2.0,37,0.00,CLR,,0.00,WeatherDisplay:10.37,2013-02-10 01:40:00,
2013-02-09 20:45:00,42.6,18.1,29.94,WSW,246,0.0,1.0,37,0.00,CLR,,0.00,WeatherDisplay:10.37,2013-02-10 01:45:00,
2013-02-09 20:50:00,42.5,18.6,29.95,West,267,0.0,0.0,38,0.00,CLR,,0.00,WeatherDisplay:10.37,2013-02-10 01:50:00,
2013-02-09 20:55:00,42.4,18.6,29.95,WSW,245,0.0,0.0,38,0.00,CLR,,0.00,WeatherDisplay:10.37,2013-02-10 01:55:00,
2013-02-09 21:00:00,42.2,19.0,29.95,SW,220,2.0,3.0,39,0.00,CLR,,0.00,WeatherDisplay:10.37,2013-02-10 02:00:00,
2013-02-09 21:05:00,42.1,18.9,29.95,WSW,239,0.0,0.0,39,0.00,CLR,,0.00,WeatherDisplay:10.37,2013-02-10 02:05:00,
2013-02-09 21:10:00,41.7,18.5,29.95,WSW,253,0.0,0.0,39,0.00,CLR,,0.00,WeatherDisplay:10.37,2013-02-10 02:10:00,
2013-02-09 21:15:00,41.7,19.1,29.96,WSW,249,0.0,0.0,40,0.00,CLR,,0.00,WeatherDisplay:10.37,2013-02-10 02:15:00,
2013-02-09 21:20:00,41.5,18.4,29.95,SW,229,3.0,4.0,39,0.00,CLR,,0.00,WeatherDisplay:10.37,2013-02-10 02:20:00,
2013-02-09 21:25:00,41.4,18.2,29.95,WSW,249,0.0,0.0,39,0.00,CLR,,0.00,WeatherDisplay:10.37,2013-02-10 02:25:00,
2013-02-09 21:30:00,41.2,18.7,29.96,WSW,255,0.0,0.0,40,0.00,CLR,,0.00,WeatherDisplay:10.37,2013-02-10 02:30:00,
2013-02-09 21:35:00,41.0,18.5,29.96,WSW,257,0.0,0.0,40,0.00,CLR,,0.00,WeatherDisplay:10.37,2013-02-10 02:35:00,
2013-02-09 21:40:00,41.0,18.5,29.96,West,280,0.0,0.0,40,0.00,CLR,,0.00,WeatherDisplay:10.37,2013-02-10 02:40:00,
2013-02-09 21:45:00,40.8,18.3,29.96,WNW,292,0.0,0.0,40,0.00,CLR,,0.00,WeatherDisplay:10.37,2013-02-10 02:45:00,
2013-02-09 21:50:00,40.8,18.3,29.96,West,280,0.0,0.0,40,0.00,CLR,,0.00,WeatherDisplay:10.37,2013-02-10 02:50:00,
2013-02-09 21:55:00,40.8,18.3,29.96,WSW,254,0.0,0.0,40,0.00,CLR,,0.00,WeatherDisplay:10.37,2013-02-10 02:55:00,
2013-02-09 22:00:00,40.6,18.2,29.96,WSW,249,0.0,0.0,40,0.00,CLR,,0.00,WeatherDisplay:10.37,2013-02-10 03:00:00,
2013-02-09 22:05:00,40.5,18.6,29.96,WSW,250,0.0,0.0,41,0.00,CLR,,0.00,WeatherDisplay:10.37,2013-02-10 03:05:00,
2013-02-09 22:10:00,40.3,18.4,29.96,WSW,248,0.0,0.0,41,0.00,CLR,,0.00,WeatherDisplay:10.37,2013-02-10 03:10:00,
2013-02-09 22:15:00,40.1,18.3,29.96,WSW,248,0.0,0.0,41,0.00,CLR,,0.00,WeatherDisplay:10.37,2013-02-10 03:15:00,
2013-02-09 22:20:00,39.9,18.1,29.97,WSW,248,0.0,0.0,41,0.00,CLR,,0.00,WeatherDisplay:10.37,2013-02-10 03:20:00,
2013-02-09 22:25:00,39.6,18.3,29.97,WSW,248,0.0,0.0,42,0.00,CLR,,0.00,WeatherDisplay:10.37,2013-02-10 03:25:00,
2013-02-09 22:30:00,39.4,18.2,29.97,WSW,248,0.0,0.0,42,0.00,CLR,,0.00,WeatherDisplay:10.37,2013-02-10 03:30:00,
2013-02-09 22:35:00,39.0,17.8,29.97,WSW,248,0.0,0.0,42,0.00,CLR,,0.00,WeatherDisplay:10.37,2013-02-10 03:35:00,
2013-02-09 22:40:00,38.8,18.2,29.98,WSW,248,0.0,0.0,43,0.00,CLR,,0.00,WeatherDisplay:10.37,2013-02-10 03:40:00,
2013-02-09 22:45:00,38.5,17.9,29.98,WSW,248,0.0,0.0,43,0.00,CLR,,0.00,WeatherDisplay:10.37,2013-02-10 03:45:00,
2013-02-09 22:50:00,38.3,17.7,29.98,WSW,248,0.0,0.0,43,0.00,CLR,,0.00,WeatherDisplay:10.37,2013-02-10 03:50:00,
2013-02-09 22:55:00,38.1,18.1,29.98,WSW,248,0.0,0.0,44,0.00,CLR,,0.00,WeatherDisplay:10.37,2013-02-10 03:55:00,
2013-02-09 23:00:00,37.9,17.9,29.98,WSW,252,0.0,0.0,44,0.00,CLR,,0.00,WeatherDisplay:10.37,2013-02-10 04:00:00,
2013-02-09 23:05:00,37.9,18.5,29.98,WSW,252,0.0,0.0,45,0.00,CLR,,0.00,WeatherDisplay:10.37,2013-02-10 04:05:00,
2013-02-09 23:10:00,37.9,18.5,29.98,WSW,248,0.0,0.0,45,0.00,CLR,,0.00,WeatherDisplay:10.37,2013-02-10 04:10:00,
2013-02-09 23:15:00,37.8,18.3,29.98,WSW,248,0.0,0.0,45,0.00,CLR,,0.00,WeatherDisplay:10.37,2013-02-10 04:15:00,
2013-02-09 23:20:00,37.6,18.6,29.98,WSW,248,0.0,0.0,46,0.00,CLR,,0.00,WeatherDisplay:10.37,2013-02-10 04:20:00,
2013-02-09 23:25:00,37.4,18.5,29.99,WSW,248,0.0,0.0,46,0.00,CLR,,0.00,WeatherDisplay:10.37,2013-02-10 04:25:00,
2013-02-09 23:30:00,37.2,18.3,29.98,WSW,248,0.0,0.0,46,0.00,CLR,,0.00,WeatherDisplay:10.37,2013-02-10 04:30:00,
2013-02-09 23:35:00,37.2,18.3,29.98,WSW,248,0.0,0.0,46,0.00,CLR,,0.00,WeatherDisplay:10.37,2013-02-10 04:35:00,
2013-02-09 23:40:00,37.2,18.3,29.98,WSW,248,0.0,0.0,46,0.00,CLR,,0.00,WeatherDisplay:10.37,2013-02-10 04:40:00,
2013-02-09 23:45:00,37.2,18.8,29.98,WSW,248,1.0,2.0,47,0.00,CLR,,0.00,WeatherDisplay:10.37,2013-02-10 04:45:00,
2013-02-09 23:50:00,37.2,18.8,29.98,WSW,237,0.0,2.0,47,0.00,CLR,,0.00,WeatherDisplay:10.37,2013-02-10 04:50:00,
2013-02-09 23:55:00,37.2,18.8,29.98,SW,228,0.0,0.0,47,0.00,CLR,,0.00,WeatherDisplay:10.37,2013-02-10 04:55:00,